TimeEDT,TemperatureF,Dew PointF,Humidity,Sea Level PressureIn,VisibilityMPH,Wind Direction,Wind SpeedMPH,Gust SpeedMPH,PrecipitationIn,Events,Conditions,WindDirDegrees,DateUTC
12:54 AM,45.0,43.0,93,30.38,1.8,Calm,Calm,-,N/A,,Mostly Cloudy,0,2013-10-14 04:54:00
1:02 AM,44.6,42.8,93,30.37,1.0,Calm,Calm,-,N/A,,Mist,0,2013-10-14 05:02:00
1:05 AM,44.6,42.8,93,30.37,2.0,Calm,Calm,-,N/A,,Mostly Cloudy,0,2013-10-14 05:05:00
1:09 AM,44.6,42.8,93,30.37,0.8,Calm,Calm,-,N/A,,Mist,0,2013-10-14 05:09:00
1:37 AM,44.6,44.6,100,30.36,0.8,Calm,Calm,-,0.00,Rain,Light Rain,0,2013-10-14 05:37:00
1:46 AM,42.8,42.8,100,30.36,0.5,Calm,Calm,-,0.00,Fog,Fog,0,2013-10-14 05:46:00
1:54 AM,42.1,41.0,96,30.36,0.5,SSW,4.6,-,0.00,Fog,Fog,210,2013-10-14 05:54:00
1:59 AM,42.8,41.0,93,30.36,1.5,Calm,Calm,-,N/A,,Scattered Clouds,0,2013-10-14 05:59:00
2:01 AM,42.8,41.0,93,30.36,3.0,Calm,Calm,-,N/A,,Scattered Clouds,0,2013-10-14 06:01:00
2:17 AM,44.6,42.8,93,30.36,1.5,Calm,Calm,-,N/A,,Scattered Clouds,0,2013-10-14 06:17:00
2:20 AM,44.6,42.8,93,30.36,0.8,Calm,Calm,-,N/A,,Mist,0,2013-10-14 06:20:00
2:37 AM,44.6,42.8,93,30.36,1.2,Calm,Calm,-,N/A,,Scattered Clouds,0,2013-10-14 06:37:00
2:51 AM,42.8,41.0,93,30.35,2.0,Calm,Calm,-,N/A,,Mostly Cloudy,0,2013-10-14 06:51:00
2:54 AM,43.0,41.0,93,30.36,5.0,Calm,Calm,-,N/A,,Mostly Cloudy,0,2013-10-14 06:54:00
3:04 AM,42.8,42.8,100,30.35,1.5,Calm,Calm,-,N/A,,Mostly Cloudy,0,2013-10-14 07:04:00
3:07 AM,42.8,42.8,100,30.35,0.8,Calm,Calm,-,N/A,,Mist,0,2013-10-14 07:07:00
3:50 AM,42.8,41.0,93,30.35,1.2,Calm,Calm,-,N/A,,Overcast,0,2013-10-14 07:50:00
3:54 AM,42.1,41.0,96,30.36,2.0,Calm,Calm,-,0.00,Rain,Light Rain,0,2013-10-14 07:54:00
3:58 AM,41.0,41.0,100,30.35,1.5,Calm,Calm,-,0.00,Rain,Light Rain,0,2013-10-14 07:58:00
4:10 AM,41.0,39.2,93,30.35,3.0,Calm,Calm,-,0.00,,Overcast,0,2013-10-14 08:10:00
4:54 AM,44.1,43.0,96,30.35,10.0,Calm,Calm,-,0.00,,Overcast,0,2013-10-14 08:54:00
5:54 AM,46.0,45.0,96,30.35,9.0,Calm,Calm,-,N/A,,Overcast,0,2013-10-14 09:54:00
6:54 AM,46.9,46.0,97,30.36,9.0,Calm,Calm,-,N/A,,Overcast,0,2013-10-14 10:54:00
7:54 AM,48.9,46.9,93,30.36,9.0,Calm,Calm,-,N/A,,Overcast,0,2013-10-14 11:54:00
8:54 AM,51.1,48.9,92,30.36,9.0,Calm,Calm,-,N/A,,Overcast,0,2013-10-14 12:54:00
9:54 AM,55.9,50.0,80,30.36,10.0,Calm,Calm,-,N/A,,Overcast,0,2013-10-14 13:54:00
10:54 AM,55.9,48.0,75,30.35,10.0,South,5.8,-,N/A,,Mostly Cloudy,180,2013-10-14 14:54:00
11:14 AM,57.2,48.2,72,30.34,10.0,SSW,3.5,-,N/A,,Scattered Clouds,200,2013-10-14 15:14:00
11:26 AM,59.0,48.2,67,30.34,10.0,SSW,5.8,-,N/A,,Mostly Cloudy,210,2013-10-14 15:26:00
11:35 AM,59.0,48.2,67,30.33,10.0,Variable,4.6,-,N/A,,Partly Cloudy,0,2013-10-14 15:35:00
11:54 AM,60.1,48.9,67,30.33,10.0,WSW,4.6,-,N/A,,Clear,240,2013-10-14 15:54:00
12:54 PM,62.1,48.9,62,30.30,10.0,South,4.6,-,N/A,,Clear,180,2013-10-14 16:54:00
1:54 PM,64.9,48.9,56,30.27,10.0,SSE,4.6,-,N/A,,Clear,160,2013-10-14 17:54:00
2:54 PM,66.9,50.0,54,30.25,10.0,Variable,4.6,-,N/A,,Clear,0,2013-10-14 18:54:00
3:54 PM,66.9,48.0,51,30.24,10.0,Calm,Calm,-,N/A,,Clear,0,2013-10-14 19:54:00
4:54 PM,68.0,48.0,49,30.23,10.0,South,3.5,-,N/A,,Clear,170,2013-10-14 20:54:00
5:54 PM,64.9,48.0,54,30.24,10.0,SSE,3.5,-,N/A,,Clear,160,2013-10-14 21:54:00
6:54 PM,57.0,50.0,77,30.26,10.0,Calm,Calm,-,N/A,,Clear,0,2013-10-14 22:54:00
7:54 PM,55.9,50.0,80,30.27,10.0,Calm,Calm,-,N/A,,Overcast,0,2013-10-14 23:54:00
8:54 PM,54.0,50.0,86,30.26,10.0,Calm,Calm,-,N/A,,Scattered Clouds,0,2013-10-15 00:54:00
9:54 PM,52.0,50.0,93,30.27,10.0,Calm,Calm,-,N/A,,Partly Cloudy,0,2013-10-15 01:54:00
10:54 PM,50.0,48.0,93,30.28,10.0,Calm,Calm,-,N/A,,Partly Cloudy,0,2013-10-15 02:54:00
11:54 PM,48.9,48.0,97,30.27,9.0,Calm,Calm,-,N/A,,Clear,0,2013-10-15 03:54:00